Theta_e
291 291 292 292 292 292 292 292 292 292 292 293 295 296 296 296 295 300 300 300 299 298 300 298 300 302 301 302 309 300 303 301 301 308 312 312 314 309 310 308 305 309 310 310 312 316 317 297 297 308 302 295 300 300
291 291 291 291 291 291 291 291 292 292 292 292 293 295 296 296 293 297 298 299 299 297 299 296 297 297 298 299 300 298 302 301 304 307 306 307 306 304 309 310 300 311 309 311 311 312 295 293 295 296 296 297 297 301
290 290 290 290 291 291 291 291 291 292 292 292 293 294 295 296 295 294 299 297 296 294 296 295 294 295 295 296 297 300 297 298 298 297 302 304 306 304 307 307 301 299 297 305 305 300 297 295 298 293 293 293 293 294
289 289 289 290 290 290 290 291 291 291 292 292 292 293 294 295 296 295 297 296 297 296 299 295 291 293 294 295 295 296 296 294 294 296 301 302 304 298 303 300 301 297 298 299 295 293 295 295 295 296 295 291 291 290
289 289 289 289 289 290 290 291 291 292 292 292 292 293 293 295 295 295 297 295 297 297 298 294 290 291 292 293 294 295 295 295 297 298 300 301 297 297 294 295 299 292 296 300 302 295 299 298 297 296 296 293 290 289
288 289 289 289 289 290 290 290 291 291 292 292 292 292 293 295 295 295 294 294 296 298 295 294 290 290 292 293 294 296 295 295 296 299 297 295 292 296 300 301 295 293 292 294 295 293 296 296 296 295 294 290 289 288
288 288 288 288 289 289 290 290 290 291 291 292 292 292 293 294 295 294 295 295 295 296 296 293 292 290 291 290 289 292 292 294 296 295 296 293 291 296 297 297 295 291 291 291 292 291 291 290 291 291 291 289 288 287
287 288 288 288 288 289 289 289 290 290 290 291 292 292 292 293 294 294 294 295 294 293 294 297 292 292 289 293 290 290 292 292 294 294 291 293 292 295 295 295 291 290 290 289 289 288 289 288 287 286 284 284 283 285
287 287 287 287 287 288 288 288 289 289 290 290 291 292 292 292 292 293 294 295 294 294 297 291 290 294 290 293 290 290 292 292 291 292 293 292 291 292 289 290 286 282 286 287 287 285 284 286 286 284 283 281 283 284
286 287 287 287 287 287 288 289 289 289 290 291 291 292 292 292 292 294 295 295 294 294 295 296 288 291 293 293 293 291 290 288 286 289 291 287 285 283 279 277 276 276 276 277 286 286 283 283 284 284 283 282 282 282
286 286 287 287 288 288 289 289 289 289 289 290 291 292 292 293 293 294 295 296 295 296 295 292 287 291 291 290 290 291 287 287 291 287 287 284 284 281 274 273 272 271 271 272 273 275 276 277 279 280 280 276 275 276
286 286 286 287 287 288 289 289 290 290 290 290 291 291 292 292 295 294 296 297 296 294 289 288 289 288 288 290 288 287 288 291 288 286 286 286 281 271 269 268 267 266 265 267 268 269 270 269 268 270 269 268 268 269
286 286 286 286 287 288 289 291 292 292 290 289 291 292 293 292 295 295 294 293 291 289 289 287 290 288 287 290 288 292 286 287 289 286 286 278 273 267 265 264 263 262 263 264 264 265 265 264 263 263 264 265 266 265
285 285 285 285 286 287 289 291 293 292 290 290 289 292 292 292 293 292 293 292 288 289 289 291 291 291 287 287 291 292 290 286 289 285 284 271 265 261 262 261 258 260 259 261 261 262 262 262 260 260 261 263 264 262
284 284 283 283 285 286 288 292 292 290 288 291 292 292 290 281 278 275 277 284 286 291 292 291 291 290 289 292 290 289 289 290 286 283 271 266 262 261 260 259 257 258 258 258 259 259 259 260 259 258 260 261 262 262
281 282 281 282 284 284 288 290 288 283 277 280 275 283 280 283 282 281 284 287 288 291 290 291 292 292 292 291 290 290 290 284 274 265 265 264 260 258 257 257 257 257 257 258 258 258 258 259 259 259 260 260 261 261
279 279 280 281 283 282 282 282 278 276 276 277 274 272 273 277 275 273 275 275 276 287 286 292 292 291 291 288 279 270 270 267 266 264 262 261 259 257 256 256 256 257 257 258 258 259 259 260 261 260 258 259 260 260
279 279 280 280 281 282 276 275 276 275 273 273 272 272 268 266 270 269 268 269 274 284 281 280 279 275 272 278 270 266 266 265 264 262 261 260 258 258 258 256 258 258 258 260 260 260 261 261 260 260 261 261 261 261
279 278 278 278 278 277 275 272 273 272 271 271 272 272 269 267 266 264 265 266 266 265 268 266 263 264 262 261 262 261 261 261 262 263 261 259 258 258 259 259 259 259 259 259 259 259 259 260 260 261 261 261 261 261
277 277 276 275 277 277 273 271 273 273 271 271 271 269 268 266 265 264 262 263 263 261 258 258 257 257 258 258 258 259 260 260 260 263 262 261 260 259 259 259 259 261 261 261 260 261 261 259 259 259 260 260 260 259
275 274 274 274 270 269 269 271 270 271 272 270 270 270 268 266 263 262 261 260 259 258 257 256 256 256 257 257 257 257 258 258 259 260 260 261 260 260 259 260 260 260 259 259 259 259 258 258 258 258 259 259 259 259
269 270 269 270 271 270 269 268 270 269 270 270 269 267 266 264 262 260 261 258 257 256 256 256 255 254 256 255 256 256 257 258 259 259 259 259 258 257 257 258 259 257 257 257 258 258 257 257 258 258 258 258 259 259
266 266 264 263 267 267 267 269 270 269 271 269 268 266 264 262 262 261 259 257 257 256 256 255 256 256 257 257 256 256 257 258 257 257 258 258 257 257 256 255 256 256 255 256 257 257 257 257 257 257 257 258 258 258
263 257 259 259 260 261 266 265 266 267 267 266 265 263 262 262 262 259 256 256 256 256 256 256 257 258 258 257 257 256 255 257 257 256 257 257 256 255 255 255 255 255 255 255 256 256 256 256 256 256 256 256 257 257
257 252 254 253 257 259 262 261 262 265 263 264 264 262 261 261 259 257 256 255 255 255 255 255 257 256 256 256 256 256 255 256 256 254 254 256 257 257 256 255 254 254 254 254 254 254 254 255 255 255 255 255 255 255
252 254 253 253 254 256 257 257 257 258 260 260 260 261 260 259 257 255 255 254 254 255 254 254 255 255 255 254 254 254 254 255 256 254 253 255 255 254 253 251 252 253 253 253 253 253 253 253 253 254 254 254 254 254
252 252 255 255 253 254 254 254 254 254 253 254 255 258 258 256 255 254 255 255 255 254 254 253 253 253 253 252 253 253 253 254 255 254 254 254 254 253 253 252 251 251 251 252 252 252 252 252 252 253 253 253 253 252
254 252 252 254 252 251 250 251 250 250 251 251 254 253 253 253 253 253 255 255 254 253 252 252 251 251 251 251 252 253 254 254 254 254 254 253 252 252 252 252 251 251 251 251 251 251 251 251 252 252 252 251 251 251
254 252 253 252 252 251 250 251 251 251 250 247 250 251 251 252 252 254 253 253 253 253 252 251 251 251 251 251 251 251 251 252 253 246 245 245 249 252 251 251 251 251 251 251 251 251 251 251 252 251 250 250 250 249
252 252 252 252 251 251 252 250 250 250 250 250 252 253 252 251 252 252 253 253 252 251 251 250 250 250 250 250 250 251 250 250 250 250 244 244 248 250 250 250 250 250 250 250 250 250 250 250 250 250 249 249 249 248
249 251 251 252 252 250 250 251 253 253 247 247 247 247 247 248 252 252 252 252 252 251 251 251 251 250 250 249 249 248 249 250 250 249 249 249 249 250 250 250 250 250 250 250 250 249 249 249 249 248 248 248 248 248
247 245 249 251 251 249 247 246 246 247 247 246 247 244 245 245 246 250 253 253 252 252 252 251 251 251 250 250 250 250 250 250 250 250 249 249 250 250 250 250 250 250 250 250 250 249 249 248 248 247 247 247 247 247
245 245 244 245 247 247 244 245 246 247 245 244 245 243 243 246 250 251 253 253 253 253 253 252 252 251 251 251 251 250 250 250 250 249 249 249 249 249 249 250 250 250 250 250 250 249 249 248 248 247 247 247 247 247
Wind_Speed
22 23 23 24 23 23 22 23 22 22 23 24 24 23 19 23 25 20 19 21 11 3 2 5 4 4 2 2 4 4 3 0 3 4 5 4 4 6 4 5 7 9 9 4 5 4 8 4 2 8 3 5 1 3
21 20 21 22 23 23 23 23 24 23 23 24 27 26 24 22 25 25 11 23 24 3 1 4 6 7 3 3 3 3 1 2 5 4 3 2 2 2 4 4 1 4 5 6 6 4 2 2 2 1 3 1 3 3
21 21 22 23 23 24 24 24 24 24 25 26 27 27 27 21 21 28 12 23 11 1 2 0 5 9 11 6 6 3 1 1 2 0 3 2 3 3 4 4 2 2 2 3 4 2 3 1 3 3 3 3 3 3
21 21 21 22 22 23 24 24 24 25 25 26 27 28 27 24 22 23 18 25 19 3 2 3 4 4 6 9 7 3 1 3 2 1 1 2 1 1 2 1 2 1 5 5 1 0 3 6 5 5 2 4 2 4
22 21 20 20 20 21 22 21 21 20 21 23 26 27 26 26 25 23 21 19 30 7 4 3 0 2 4 8 6 5 6 3 2 2 2 1 2 3 2 2 2 4 5 4 4 7 3 4 9 9 7 4 5 5
21 20 18 18 17 18 17 18 18 18 17 18 22 25 25 25 19 6 3 20 27 18 3 3 3 2 3 11 10 6 3 1 1 1 2 1 2 1 3 3 3 4 4 3 4 11 5 2 6 2 2 4 4 4
19 18 18 16 16 16 14 14 14 15 15 15 17 23 23 24 24 4 3 3 31 21 3 3 3 3 2 4 1 2 2 1 0 1 1 2 2 2 1 3 3 5 5 2 4 7 1 2 2 5 5 6 7 4
21 19 18 17 16 16 15 15 16 16 16 14 14 19 26 24 21 14 26 24 13 5 2 5 3 4 5 3 2 2 2 1 1 2 0 2 2 0 2 4 5 5 5 4 7 6 2 6 5 5 4 3 4 3
19 20 18 17 19 19 20 19 18 18 18 17 17 18 21 21 4 6 14 18 21 8 4 3 8 5 4 2 3 1 2 2 0 2 2 3 2 3 1 5 8 9 5 5 2 5 6 6 5 3 3 2 4 2
18 18 19 20 22 22 22 23 23 21 20 15 13 4 4 9 21 8 6 4 6 4 3 3 3 4 5 3 3 3 2 3 2 3 3 2 2 6 7 7 7 9 10 10 5 5 5 4 5 4 3 2 2 2
17 17 17 17 20 21 23 24 21 20 21 8 4 5 3 14 13 4 5 6 5 5 4 3 3 8 1 3 3 1 3 2 3 4 4 2 3 3 6 7 9 9 9 8 5 4 5 4 5 5 6 8 7 8
14 12 12 13 17 21 24 29 34 32 14 8 5 7 7 3 5 7 6 4 5 6 2 5 4 4 2 3 3 2 3 3 4 4 3 3 2 5 6 7 9 10 9 8 9 7 7 8 9 5 5 6 10 8
6 8 8 15 21 25 27 28 31 33 28 11 5 4 4 5 9 7 6 2 2 5 6 5 6 4 2 1 3 3 4 3 7 2 4 1 5 5 5 5 5 8 10 7 8 10 10 10 15 14 8 12 10 13
8 7 7 17 23 28 26 25 27 38 14 3 4 10 5 4 3 2 5 4 2 4 10 11 5 3 3 3 3 5 3 4 3 3 5 2 3 2 3 4 4 5 6 7 7 10 10 10 12 18 18 15 13 15
6 2 8 23 24 25 19 14 36 24 3 3 2 3 3 3 2 2 4 3 2 10 11 6 3 3 2 4 3 4 4 4 5 4 2 3 4 4 5 4 5 5 6 5 8 7 10 13 14 16 19 18 16 19
9 3 12 26 24 17 4 20 12 5 3 3 7 1 1 2 2 2 3 3 2 7 4 3 4 3 3 5 4 3 8 4 2 2 2 4 4 4 3 4 4 6 6 7 12 13 14 16 14 13 18 19 18 19
6 7 22 25 19 10 10 7 5 5 4 4 2 3 3 4 4 2 5 5 7 1 3 3 4 3 4 3 3 5 3 2 4 4 4 5 4 2 3 4 7 9 11 12 13 13 13 13 14 17 13 15 16 16
6 16 23 23 14 5 6 8 4 5 5 2 3 3 4 6 3 3 4 7 5 2 3 3 4 7 4 4 3 2 4 4 5 5 4 4 3 5 7 4 9 10 12 13 14 15 15 15 14 11 12 10 13 13
12 16 22 21 9 5 3 5 4 4 4 2 2 3 3 4 7 7 7 7 6 6 4 4 8 4 3 4 4 4 4 4 3 4 4 6 8 8 7 9 13 14 15 14 14 13 15 15 14 13 12 11 11 10
10 12 20 16 7 3 4 3 5 4 3 2 3 5 3 4 4 5 9 8 6 4 8 6 4 3 3 2 3 3 3 3 2 2 4 4 8 10 10 10 9 8 9 11 14 13 12 14 15 14 13 12 11 10
7 14 15 9 7 11 4 3 4 2 3 3 2 2 4 3 5 7 6 7 7 5 4 4 3 2 4 8 9 7 6 6 3 3 2 2 6 10 11 12 12 13 11 12 10 13 15 13 9 9 9 8 6 5
11 11 7 12 4 4 4 5 2 2 3 2 3 4 4 3 4 5 4 9 4 4 3 2 2 2 3 4 7 9 7 5 8 9 9 8 3 4 6 10 10 10 13 14 15 14 11 10 10 9 8 8 7 7
7 8 8 12 6 6 3 6 3 5 3 3 2 4 4 3 3 4 5 4 3 7 7 3 4 1 4 10 12 15 16 11 9 8 8 9 11 11 12 16 17 15 13 16 13 11 11 9 10 9 9 9 9 9
10 7 7 6 9 4 3 5 4 4 4 4 4 4 4 3 3 5 5 3 3 8 5 8 10 2 5 9 7 11 14 12 10 13 15 9 9 13 17 18 19 18 13 10 12 13 13 13 11 11 11 10 10 11
8 11 6 9 5 6 6 4 6 4 5 5 4 4 4 3 4 4 3 2 4 5 5 9 8 7 5 4 8 11 16 15 10 7 14 11 9 9 11 13 17 19 16 17 17 15 14 14 14 14 13 12 13 14
9 8 7 9 6 5 5 4 5 8 5 4 5 3 2 4 5 5 2 2 2 4 4 5 5 4 5 10 5 9 13 9 8 10 12 13 13 12 10 6 6 9 15 13 12 13 14 15 16 16 15 14 13 15
8 6 4 4 3 3 4 4 4 5 6 6 4 4 3 6 5 2 1 4 2 7 9 9 9 8 6 8 9 9 9 7 7 8 7 6 9 11 13 10 7 9 13 12 10 12 13 15 16 17 19 16 15 18
5 5 7 9 5 5 4 4 6 6 4 4 2 6 4 3 2 1 2 6 6 6 9 11 8 7 6 8 8 9 6 5 3 1 1 2 4 3 7 12 10 9 10 10 12 12 12 12 16 18 16 20 26 27
4 5 3 6 4 5 7 5 4 3 3 2 2 3 3 2 2 3 5 5 4 7 11 12 14 10 6 4 8 9 7 9 6 4 3 3 4 3 13 15 14 12 12 14 13 12 12 15 18 22 23 25 25 24
6 4 3 5 5 7 4 2 2 3 1 1 4 6 3 3 7 5 5 5 6 7 7 8 10 15 13 11 12 12 5 2 5 7 1 3 7 17 18 17 16 14 14 15 17 19 21 24 25 25 25 25 25 25
4 4 5 5 4 2 2 5 4 10 4 5 4 4 2 2 1 10 13 8 2 1 3 6 9 9 11 12 10 9 8 3 4 10 12 14 17 17 17 17 15 15 15 17 19 22 25 27 27 27 28 27 28 28
4 4 3 4 2 3 5 3 2 3 3 3 3 3 3 3 2 3 2 9 8 2 1 4 7 11 13 14 10 9 13 14 10 12 16 18 20 19 17 16 18 19 20 21 22 25 26 27 28 27 27 29 30 30
3 4 4 3 4 5 4 4 5 3 4 3 3 0 1 3 2 3 4 1 6 9 8 8 10 12 15 11 14 12 7 8 13 16 18 18 17 17 17 19 20 20 19 22 27 28 29 29 28 28 29 30 31 32
Wind_Direction
266 262 260 256 259 264 266 265 265 262 265 263 261 252 256 254 265 249 232 205 194 196 207 187 215 196 159 222 208 129 114 261 125 213 202 183 192 203 166 164 172 166 170 188 205 230 243 155 19 164 256 343 329 100
264 262 260 260 262 263 264 265 267 265 261 260 256 256 249 247 257 277 209 198 210 195 265 202 237 247 250 155 133 219 2 164 176 179 202 147 165 179 161 201 57 189 185 178 192 202 166 88 174 18 360 129 324 90
266 266 266 263 261 262 264 266 263 262 258 256 256 253 246 245 245 263 222 173 172 182 272 119 219 214 215 204 173 150 214 195 243 147 150 175 188 177 172 212 127 224 155 111 129 203 269 311 273 208 184 143 124 136
267 265 264 262 261 263 263 263 263 263 258 251 250 253 250 243 244 249 250 186 175 138 244 198 147 143 195 192 183 181 152 113 135 146 148 174 169 6 120 100 138 203 130 124 47 286 337 282 256 265 271 145 120 74
267 260 260 260 263 263 262 260 260 264 257 259 248 248 245 236 240 239 240 222 194 174 179 155 100 161 167 188 180 198 161 149 181 152 169 176 112 133 54 0 209 195 156 172 211 173 164 215 218 226 215 193 143 123
264 258 260 262 268 270 265 264 264 260 265 268 250 245 242 236 241 223 254 221 219 195 129 168 75 143 173 179 175 176 139 105 108 124 110 80 340 196 159 192 186 177 164 131 172 176 201 305 233 217 244 115 126 137
265 259 259 265 267 264 263 268 267 263 266 276 263 247 243 237 230 183 227 350 202 193 159 135 166 172 124 107 73 143 151 113 69 121 111 133 175 233 78 183 201 178 158 167 142 120 74 125 272 165 147 136 130 116
259 258 258 261 264 268 266 265 267 265 267 273 279 255 240 240 239 232 237 257 247 155 194 168 105 149 204 155 125 203 136 142 6 89 107 132 94 152 240 234 57 96 118 65 104 64 80 117 75 51 62 87 91 167
258 253 255 259 268 267 267 270 273 270 267 268 277 267 238 236 210 198 224 221 220 216 185 126 153 169 169 113 115 71 168 120 171 149 204 116 169 209 22 26 66 22 40 344 33 74 52 81 100 124 117 95 133 201
260 255 255 258 269 270 266 264 265 260 258 266 277 198 198 195 205 208 182 207 198 215 182 148 103 136 168 134 142 123 156 150 153 222 121 121 232 86 52 46 45 22 14 353 39 28 11 36 26 359 348 20 65 94
254 250 259 272 276 272 267 260 250 259 251 235 225 198 153 165 160 164 224 204 157 197 142 131 118 133 249 129 128 105 170 163 154 237 128 218 272 126 29 41 28 21 14 24 15 4 14 358 355 2 25 33 32 36
261 260 263 284 293 289 281 265 259 238 210 198 199 116 147 218 181 199 203 220 178 170 128 121 134 123 145 127 107 264 138 150 184 148 111 231 97 55 27 16 14 14 6 8 16 19 20 34 17 5 32 28 30 44
286 230 277 307 310 307 293 276 256 215 197 223 196 147 194 192 217 201 164 131 165 156 148 160 142 131 94 128 90 148 121 181 131 103 208 110 97 50 19 10 7 14 11 17 18 26 42 50 48 47 43 40 57 58
297 243 307 323 326 325 314 288 205 170 155 217 183 186 207 172 240 248 158 149 219 155 143 144 116 119 132 104 145 126 94 118 169 145 231 80 66 22 30 19 31 2 10 25 21 24 34 47 52 48 48 48 60 58
359 145 359 344 338 334 329 148 144 139 91 194 195 225 149 95 95 309 298 70 282 147 138 117 74 87 107 118 82 115 153 168 187 197 84 70 47 34 37 16 15 15 10 22 21 33 41 53 58 53 53 60 70 75
16 84 356 341 338 339 287 150 121 70 52 44 27 95 355 85 73 9 334 97 343 139 105 74 109 119 114 119 134 129 142 178 100 64 54 87 59 37 26 23 11 14 22 42 53 65 66 62 61 65 66 65 73 84
40 29 344 341 341 359 71 84 78 49 63 51 35 351 310 53 80 70 345 350 324 321 90 112 92 84 107 93 75 19 55 56 91 79 70 60 58 16 16 52 31 52 57 60 68 67 67 75 85 71 55 52 64 71
34 349 353 347 349 17 45 36 74 73 90 44 82 343 74 25 359 40 350 355 330 35 35 59 44 51 41 87 88 61 79 76 66 74 57 54 50 46 64 76 63 65 59 52 57 56 63 70 67 74 64 58 60 55
350 353 358 359 10 76 64 35 25 91 74 50 60 48 81 94 56 28 12 359 48 36 70 45 58 50 59 37 52 64 44 28 26 75 85 74 56 42 51 73 68 68 70 73 76 76 71 66 57 50 51 57 64 50
351 6 2 13 46 65 64 31 20 71 67 76 41 39 72 71 18 29 28 21 37 54 49 43 42 28 37 15 9 35 33 353 323 136 86 61 47 60 56 61 55 64 74 83 66 68 70 59 51 46 44 47 52 39
6 360 7 29 53 58 69 9 52 42 95 67 340 39 65 51 30 16 27 7 57 34 66 43 34 17 352 42 29 10 42 13 34 32 42 71 46 59 45 48 63 67 60 52 61 60 58 51 34 42 43 36 30 16
3 1 37 30 73 74 75 21 55 71 68 99 71 46 48 43 26 24 25 40 66 33 32 359 352 329 20 25 31 36 21 45 54 61 55 57 41 30 30 28 52 65 57 46 45 46 43 30 28 28 19 12 9 359
16 39 44 15 62 41 15 344 53 18 68 72 57 50 43 49 37 34 73 52 72 24 9 346 308 350 36 65 56 44 42 57 57 47 60 73 65 65 61 51 54 54 47 33 34 35 32 22 15 15 8 1 352 346
40 43 28 36 18 31 344 31 16 36 46 48 50 60 43 36 58 63 71 61 21 9 14 6 16 57 60 48 47 37 22 44 66 50 44 79 77 66 76 71 62 57 53 47 43 38 32 28 19 15 8 359 353 342
69 3 32 5 3 7 29 27 15 25 62 33 71 57 42 26 66 63 64 32 13 16 15 10 44 40 51 49 43 40 40 44 55 65 39 61 96 94 81 71 59 46 34 31 24 17 17 13 9 4 1 358 349 345
66 19 32 3 4 20 5 42 33 22 20 64 48 64 43 64 67 62 61 12 359 14 15 9 14 30 43 34 30 20 12 34 73 76 53 67 74 78 71 56 22 21 13 6 355 354 353 350 348 347 342 340 338 336
42 353 12 26 352 337 54 43 28 45 47 33 10 27 45 64 68 72 117 26 49 46 46 43 39 41 40 23 25 31 32 58 88 100 106 72 65 58 48 40 9 348 342 344 341 336 338 334 334 331 326 321 321 323
47 38 13 352 39 14 63 44 32 21 11 348 351 38 70 64 97 73 56 73 91 84 61 52 53 48 45 35 25 20 31 30 196 234 127 70 13 342 4 3 357 343 334 334 333 333 327 328 326 325 322 316 313 314
27 342 333 11 31 50 37 32 18 13 350 352 76 75 91 57 20 61 62 96 106 85 61 44 36 42 66 64 33 22 14 22 52 57 36 301 329 311 335 343 342 342 339 336 336 331 324 320 319 316 309 308 310 312
343 345 50 25 48 48 1 31 321 314 288 316 87 99 70 55 40 88 115 118 107 94 68 49 36 31 26 12 356 7 4 359 34 41 186 258 296 317 325 330 332 335 333 332 330 326 325 325 325 323 323 321 319 317
315 11 44 36 71 359 314 308 12 57 38 52 32 83 111 170 78 57 49 45 24 310 356 9 13 9 359 356 344 328 339 336 300 320 315 311 312 313 318 320 323 323 322 321 320 322 324 322 318 316 314 312 312 312
19 29 64 64 24 329 13 32 11 56 1 43 359 35 13 44 13 294 82 30 31 51 309 331 332 340 344 335 323 310 303 303 297 308 311 310 310 310 310 314 318 318 312 306 307 312 315 316 311 307 303 305 307 308
29 27 37 55 18 10 343 26 23 23 27 28 348 308 215 155 199 255 221 194 46 30 342 307 318 324 326 322 322 318 317 310 307 308 307 303 298 297 298 297 302 303 297 298 305 308 309 310 307 306 305 305 306 306